This is the latest recevied weather packets stored in our database for station/object F5GJJ-13. If no packets are shown the sender has not sent any weather packets the latest 10 day(s).
| Time | Temp. | Humidity | Pressure | Rain* | Wind** | Luminosity | Snow |
|---|---|---|---|---|---|---|---|
| 1778161757 | 20° C | 53% | 1012.6 hPa | 0 mm | - | - | - |
| 1778160797 | 20° C | 52% | 1013.6 hPa | 0 mm | - | - | - |
| 1778160361 | 20.56° C | 53% | 1013.6 hPa | 0 mm | - | - | - |
| 1778159835 | 20.56° C | 53% | 1013.6 hPa | 0 mm | - | - | - |
| 1778158876 | 21.11° C | 51% | 1013.6 hPa | 0 mm | - | - | - |
| 1778158561 | 21.11° C | 53% | 1013.6 hPa | 0 mm | - | - | - |
| 1778157985 | 20.56° C | 53% | 1013.6 hPa | 0 mm | - | - | - |
| 1778157915 | 20.56° C | 53% | 1013.6 hPa | 0 mm | - | - | - |
| 1778156956 | 20° C | 55% | 1013.6 hPa | 0 mm | - | - | - |
| 1778156761 | 20.56° C | 55% | 1013.6 hPa | 0 mm | - | - | - |
| 1778155995 | 20.56° C | 53% | 1013.6 hPa | 0 mm | - | - | - |
| 1778155037 | 21.11° C | 56% | 1013.6 hPa | 0 mm | - | - | - |
| 1778155037 | 21.11° C | 56% | 1013.6 hPa | 0 mm | - | - | - |
| 1778154961 | 20.56° C | 56% | 1013.6 hPa | 0 mm | - | - | - |
| 1778154075 | 20.56° C | 59% | 1013.6 hPa | 0 mm | - | - | - |
| 1778153160 | 20° C | 60% | 1014.6 hPa | 0 mm | - | - | - |
| 1778153116 | 20° C | 61% | 1014.6 hPa | 0 mm | - | - | - |
| 1778152155 | 20° C | 58% | 1014.6 hPa | 0 mm | - | - | - |
| 1778151363 | 19.44° C | 64% | 1014.6 hPa | 0 mm | - | - | - |
| 1778151197 | 20° C | 63% | 1014.6 hPa | 0 mm | - | - | - |
| 1778150236 | 20.56° C | 67% | 1014.6 hPa | 0 mm | - | - | - |
| 1778149561 | 20° C | 69% | 1014.6 hPa | 0 mm | - | - | - |
| 1778149275 | 19.44° C | 70% | 1014.6 hPa | 0 mm | - | - | - |
| 1778148316 | 18.33° C | 73% | 1014.6 hPa | 0 mm | - | - | - |
| 1778147762 | 18.33° C | 74% | 1014.6 hPa | 0 mm | - | - | - |
* Rain latest hour (hover to see other rain measurements)
** Current wind speed in m/s (hover to see current wind gust speed)